Flag for United Kingdom Weather past 2 weeks in Carlisle, England, United Kingdom

Now
57 °F

Scattered showers. Broken clouds.


Feels Like: 53 °F
Forecast: 43 / 61 °F
Wind: 22 mph from West

Location: Carlisle Airport

Current Time: Aug 21, 2014 at 3:40:43 PM

Latest Report: Aug 21, 2014 at 3:20 PM


Visibility: N/A

Pressure: 29.71 "Hg

Humidity: 82%

Dew point: 52 °F

Location of CarlisleLocation

Historic Weather in Carlisle — Graph

°F

Carlisle temperature yesterday

Maximum temperature yesterday: 59 °F (at 2:20 PM)
Minimum temperature yesterday: 50 °F (at 8:50 AM)
Average temperature yesterday: 57 °F

Past Weeks' High & Low Weather Summary

 TemperatureHumidityPressure
High66 °F (Aug 13, 3:20 PM)100% (Aug 14, 8:50 AM)30.01 "Hg (Aug 14, 8:50 AM)
Low43 °F (Aug 19, 6:20 AM)52% (Aug 18, 3:20 PM)29.39 "Hg (Aug 11, 8:50 AM)
Average57 °F77%29.71 "Hg
* Reported Aug 11 8:50 AM — Aug 21 2:20 PM, Carlisle, Weather by CustomWeather, © 2014

Note: Actual official high and low records may vary slightly from our data, if they occured in-between our weather recording intervals... More about our weather records

Advertising

Carlisle weather history for previous 24 hours

 ConditionsComfort  
Time TempWeatherWind HumidityBarometerVisibility
2:20 PM
Aug 21
57 °FScattered showers. Broken clouds.17 mph82%29.74 "HgN/A
1:50 PM57 °FScattered showers. Broken clouds.21 mph88%29.74 "HgN/A
1:20 PM55 °FScattered showers. Broken clouds.17 mph94%29.74 "HgN/A
12:50 PM54 °FScattered showers. Broken clouds.12 mph100%29.74 "HgN/A
12:20 PM54 °FScattered showers. Broken clouds.15 mph94%29.77 "HgN/A
11:50 AM54 °FLight rain. Cloudy.15 mph94%29.77 "Hg5 mi
11:20 AM52 °FLight rain. Cloudy.15 mph100%29.77 "Hg6 mi
10:50 AM52 °FRain. Broken clouds.10 mph94%29.77 "Hg3 mi
10:20 AM52 °FRain showers. Broken clouds.15 mph94%29.77 "HgN/A
9:50 AM52 °FBroken clouds.13 mph94%29.80 "HgN/A
9:20 AM52 °FRain. Broken clouds.9 mph94%29.80 "HgN/A
8:50 AM50 °FRain. Broken clouds.10 mph100%29.80 "HgN/A
7:20 AM50 °FLight rain. Broken clouds.5 mph94%29.83 "HgN/A
6:50 AM50 °FRain. Partly cloudy.8 mph94%29.83 "HgN/A
5:50 AM50 °FLight rain. Passing clouds.6 mph94%29.86 "HgN/A
6:50 PM
Aug 20
57 °FScattered clouds.6 mph59%29.98 "HgN/A
6:20 PM57 °FScattered clouds.8 mph59%29.98 "HgN/A
5:50 PM57 °FScattered clouds.8 mph63%29.98 "HgN/A
4:50 PM59 °FScattered clouds.10 mph59%29.98 "HgN/A
4:20 PM59 °FScattered clouds.10 mph55%29.98 "HgN/A
3:50 PM59 °FScattered clouds.13 mph55%29.98 "HgN/A
3:20 PM59 °FScattered clouds.13 mph55%30.01 "HgN/A
Weather by CustomWeather, © 2014

See weather overviewHow to use our weather pages